Monclova, OH

11:29 AM EST on February 06, 2016 (GMT -0500)
Toledo Express

Weather History for KTOL - July, 2013

Change the Weather History Date:

Wednesday, July 24, 2013

  Actual Average Record
Temperature  
Mean Temperature 63 °F 73 °F  
Max Temperature 73 °F 84 °F 103 °F (1934)
Min Temperature 53 °F 62 °F 50 °F (1985)
Degree Days  
Heating Degree Days 2 0  
Month to date heating degree days 3 0  
Since 1 June heating degree days 34 35  
Since 1 July heating degree days 3 0  
Cooling Degree Days 0 8  
Month to date cooling degree days 236 211  
Year to date cooling degree days 492 434  
Since 1 June cooling degree days 398 381  
Growing Degree Days 13 (Base 50)    
Moisture  
Dew Point 50 °F    
Average Humidity 67    
Maximum Humidity 89    
Minimum Humidity 44    
Precipitation  
Precipitation 0.00 in 0.11 in - ()
Month to date precipitation 3.02 2.47  
Year to date precipitation 23.87 19.41  
Snow  
Snow 0.00 in 0.00 in - ()
Month to date snowfall 0.0 0.0  
Since 1 June snowfall 0.0 0.0  
Since 1 July snowfall 0.0 0.0  
Snow Depth 0.00 in    
Sea Level Pressure  
Sea Level Pressure 29.98 in    
Wind  
Wind Speed 5 mph (NNE)    
Max Wind Speed 14 mph    
Max Gust Speed 24 mph    
Visibility 10 miles    
Events      
T = Trace of Precipitation, MM = Missing Value Source: NWS Daily Summary

Daily Weather History Graph

Daily Weather History Graph

Search for Another Location

Airport or City:

Trip Planner

Search our weather history database for the weather conditions in past years. The results will help you decide how hot, cold, wet, or windy it might be!

Date:

Astronomy

Jul. 24, 2013 Rise Set
Actual Time 6:22 AM EDT 9:00 PM EDT
Civil Twilight 5:50 AM EDT 9:32 PM EDT
Nautical Twilight 5:10 AM EDT 10:12 PM EDT
Astronomical Twilight 4:24 AM EDT 10:57 PM EDT
Moon 10:02 PM EDT (7/24) 8:43 AM EDT (7/24)
Length of Visible Light 15h 42m
Length of Day
14h 38m
Waning Gibbous, 95% of the Moon is Illuminated
Jul 24
Waning Gibbous
Jul 29
Last Quarter
Aug 6
New
Aug 14
First Quarter
Aug 20
Full

Hourly Weather History & Observations

Time (EDT) Temp. Dew Point Humidity Pressure Visibility Wind Dir Wind Speed Gust Speed Precip Events Conditions
12:52 AM 60.1 °F 51.1 °F 72% 29.88 in 10.0 mi North 11.5 mph - N/A   Clear
1:52 AM 57.9 °F 50.0 °F 75% 29.89 in 10.0 mi North 8.1 mph - N/A   Clear
2:52 AM 57.0 °F 50.0 °F 77% 29.89 in 10.0 mi North 5.8 mph - N/A   Mostly Cloudy
3:52 AM 55.9 °F 50.0 °F 80% 29.90 in 10.0 mi North 5.8 mph - N/A   Mostly Cloudy
4:52 AM 54.0 °F 50.0 °F 86% 29.90 in 10.0 mi North 6.9 mph - N/A   Clear
5:52 AM 54.0 °F 48.9 °F 83% 29.93 in 10.0 mi North 5.8 mph - N/A   Clear
6:52 AM 54.0 °F 48.9 °F 83% 29.95 in 10.0 mi North 6.9 mph - N/A   Clear
7:52 AM 55.9 °F 48.9 °F 77% 29.97 in 10.0 mi North 5.8 mph - N/A   Clear
8:52 AM 60.1 °F 50.0 °F 69% 29.99 in 10.0 mi NNE 10.4 mph - N/A   Clear
9:52 AM 64.0 °F 48.9 °F 58% 29.99 in 10.0 mi NNE 10.4 mph - N/A   Clear
10:52 AM 64.9 °F 48.9 °F 56% 30.00 in 10.0 mi NNE 11.5 mph - N/A   Clear
11:52 AM 64.9 °F 48.9 °F 56% 30.01 in 10.0 mi NE 4.6 mph - N/A   Scattered Clouds
12:52 PM 66.0 °F 48.9 °F 54% 30.03 in 10.0 mi Variable 3.5 mph - N/A   Mostly Cloudy
1:52 PM 68.0 °F 48.0 °F 49% 30.02 in 10.0 mi Variable 4.6 mph - N/A   Partly Cloudy
2:52 PM 71.1 °F 48.9 °F 45% 30.00 in 10.0 mi Calm Calm - N/A   Partly Cloudy
3:52 PM 72.0 °F 48.9 °F 44% 30.00 in 10.0 mi NE 12.7 mph - N/A   Clear
4:52 PM 69.1 °F 48.9 °F 49% 30.01 in 10.0 mi ENE 6.9 mph - N/A   Scattered Clouds
5:52 PM 72.0 °F 48.9 °F 44% 30.00 in 10.0 mi Variable 4.6 mph - N/A   Scattered Clouds
6:52 PM 70.0 °F 51.1 °F 51% 30.00 in 10.0 mi ESE 4.6 mph - N/A   Partly Cloudy
7:52 PM 66.9 °F 52.0 °F 59% 30.02 in 10.0 mi East 5.8 mph - N/A   Partly Cloudy
8:52 PM 64.0 °F 52.0 °F 65% 30.03 in 9.0 mi SE 3.5 mph - N/A   Clear
9:52 PM 59.0 °F 53.1 °F 81% 30.03 in 10.0 mi Calm Calm - N/A   Clear
10:52 PM 57.9 °F 53.1 °F 84% 30.04 in 10.0 mi Calm Calm - N/A   Clear
11:52 PM 57.0 °F 53.1 °F 87% 30.05 in 10.0 mi Calm Calm - N/A   Clear